^^
Your Local Weather - Clay, NY Station Historical Data
Daily Summary for November 26, 2017 Units:  English    Metric   Both
« Previous Day
Next Day »
Daily Weekly Monthly Yearly Custom
  High: Low: Average:
Temperature: 41.0 °F 32.6 °F 35 °F
Dew Point: 35.1 °F 24.2 °F 28.9 °F
Humidity: 91% 66% 78%
Wind Speed: 6.0mph 0.0mph 3mph
Wind Gust: 13.0mph - -
Wind- - West
Pressure: 30.00 in 29.76 in -
Precipitation: 0.12 in    
Historical Graphs
 
 
Tabular Data for November 26, 2017
Time Temperature Dew Point Pressure Wind Wind Speed Wind Gust Humidity Rainfall Rate (Hourly) solar
00:00 40.9 °F 34.6 °F 29.76 in WNW 1.0 mph 1.0 mph 78% 0.00 in 0 W/m2
00:05 40.9 °F 34.9 °F 29.76 in WSW 2.0 mph 5.0 mph 79% 0.00 in 0 W/m2
00:12 41.0 °F 35.0 °F 29.76 in West 4.0 mph 6.0 mph 79% 0.00 in 0 W/m2
00:18 41.0 °F 35.0 °F 29.76 in WSW 4.0 mph 6.0 mph 79% 0.00 in 0 W/m2
00:24 40.9 °F 34.9 °F 29.76 in West 3.0 mph 4.0 mph 79% 0.00 in 0 W/m2
00:30 40.8 °F 35.1 °F 29.76 in WSW 3.0 mph 3.0 mph 80% 0.00 in 0 W/m2
00:36 40.7 °F 35.0 °F 29.76 in West 2.0 mph 3.0 mph 80% 0.00 in 0 W/m2
00:42 40.7 °F 35.0 °F 29.76 in WSW 3.0 mph 6.0 mph 80% 0.00 in 0 W/m2
00:50 40.6 °F 34.9 °F 29.76 in WSW 3.0 mph 6.0 mph 80% 0.00 in 0 W/m2
00:56 40.6 °F 34.6 °F 29.76 in West 3.0 mph 6.0 mph 79% 0.00 in 0 W/m2
01:02 40.6 °F 34.6 °F 29.76 in WNW 2.0 mph 3.0 mph 79% 0.00 in 0 W/m2
01:08 40.7 °F 34.7 °F 29.76 in WNW 2.0 mph 3.0 mph 79% 0.00 in 0 W/m2
01:14 40.7 °F 34.7 °F 29.76 in West 2.0 mph 3.0 mph 79% 0.00 in 0 W/m2
01:20 40.6 °F 34.9 °F 29.76 in WNW 3.0 mph 3.0 mph 80% 0.00 in 0 W/m2
01:26 40.4 °F 35.0 °F 29.77 in West 3.0 mph 5.0 mph 81% 0.00 in 0 W/m2
01:32 40.1 °F 35.0 °F 29.77 in WNW 2.0 mph 4.0 mph 82% 0.00 in 0 W/m2
01:38 39.7 °F 35.0 °F 29.77 in NW 2.0 mph 4.0 mph 83% 0.00 in 0 W/m2
01:44 39.4 °F 35.0 °F 29.78 in NW 2.0 mph 3.0 mph 84% 0.00 in 0 W/m2
01:50 39.1 °F 35.0 °F 29.78 in NNW 2.0 mph 2.0 mph 85% 0.24 in 0 W/m2
01:56 38.6 °F 34.8 °F 29.78 in WSW 3.0 mph 3.0 mph 86% 0.12 in 0 W/m2
02:02 37.9 °F 34.1 °F 29.78 in WSW 3.0 mph 3.0 mph 86% 0.05 in 0 W/m2
02:09 37.5 °F 34.0 °F 29.78 in West 3.0 mph 6.0 mph 87% 0.00 in 0 W/m2
02:14 37.4 °F 34.2 °F 29.78 in West 3.0 mph 5.0 mph 88% 0.00 in 0 W/m2
02:22 37.3 °F 34.1 °F 29.78 in West 3.0 mph 3.0 mph 88% 0.00 in 0 W/m2
02:28 37.2 °F 34.3 °F 29.78 in West 3.0 mph 5.0 mph 89% 0.00 in 0 W/m2
02:34 37.2 °F 34.3 °F 29.79 in West 3.0 mph 3.0 mph 89% 0.00 in 0 W/m2
02:40 37.2 °F 34.3 °F 29.79 in West 3.0 mph 3.0 mph 89% 0.00 in 0 W/m2
02:46 37.0 °F 34.1 °F 29.80 in WNW 3.0 mph 8.0 mph 89% 0.00 in 0 W/m2
02:52 36.9 °F 34.0 °F 29.80 in WSW 3.0 mph 3.0 mph 89% 0.00 in 0 W/m2
02:58 36.6 °F 33.9 °F 29.80 in West 4.0 mph 7.0 mph 90% 0.15 in 0 W/m2
03:04 36.4 °F 33.5 °F 29.81 in WNW 4.0 mph 5.0 mph 89% 0.07 in 0 W/m2
03:10 36.4 °F 33.7 °F 29.81 in WNW 4.0 mph 4.0 mph 90% 0.04 in 0 W/m2
03:16 36.4 °F 33.7 °F 29.81 in West 4.0 mph 5.0 mph 90% 0.00 in 0 W/m2
03:22 36.7 °F 34.0 °F 29.81 in WNW 4.0 mph 5.0 mph 90% 0.00 in 0 W/m2
03:28 36.9 °F 34.2 °F 29.81 in WNW 5.0 mph 6.0 mph 90% 0.00 in 0 W/m2
03:34 36.9 °F 34.0 °F 29.82 in West 5.0 mph 5.0 mph 89% 0.00 in 0 W/m2
03:40 36.8 °F 33.6 °F 29.82 in West 4.0 mph 4.0 mph 88% 0.00 in 0 W/m2
03:46 36.8 °F 33.3 °F 29.82 in WSW 4.0 mph 6.0 mph 87% 0.00 in 0 W/m2
03:50 36.7 °F 33.2 °F 29.82 in WNW 4.0 mph 6.0 mph 87% 0.00 in 0 W/m2
03:56 36.7 °F 32.9 °F 29.82 in WNW 4.0 mph 7.0 mph 86% 0.00 in 0 W/m2
04:02 36.7 °F 32.6 °F 29.82 in West 4.0 mph 6.0 mph 85% 0.00 in 0 W/m2
04:08 36.7 °F 32.6 °F 29.83 in West 3.0 mph 6.0 mph 85% 0.00 in 0 W/m2
04:14 36.7 °F 32.6 °F 29.83 in NW 3.0 mph 4.0 mph 85% 0.00 in 0 W/m2
04:20 36.6 °F 32.2 °F 29.83 in WSW 3.0 mph 3.0 mph 84% 0.00 in 0 W/m2
04:26 36.7 °F 32.0 °F 29.84 in West 4.0 mph 5.0 mph 83% 0.00 in 0 W/m2
04:32 36.6 °F 31.6 °F 29.84 in SW 5.0 mph 13.0 mph 82% 0.00 in 0 W/m2
04:38 36.4 °F 31.4 °F 29.84 in NW 5.0 mph 13.0 mph 82% 0.00 in 0 W/m2
04:44 35.9 °F 31.2 °F 29.84 in WNW 4.0 mph 6.0 mph 83% 0.00 in 0 W/m2
04:50 35.4 °F 31.0 °F 29.86 in West 4.0 mph 7.0 mph 84% 0.00 in 0 W/m2
04:56 35.0 °F 30.9 °F 29.86 in West 6.0 mph 10.0 mph 85% 0.00 in 0 W/m2
05:02 34.9 °F 30.8 °F 29.86 in WNW 6.0 mph 6.0 mph 85% 0.00 in 0 W/m2
05:08 34.8 °F 31.0 °F 29.85 in WSW 5.0 mph 8.0 mph 86% 0.00 in 0 W/m2
05:14 34.5 °F 30.7 °F 29.86 in WSW 4.0 mph 6.0 mph 86% 0.00 in 0 W/m2
05:20 34.2 °F 30.7 °F 29.87 in West 4.0 mph 4.0 mph 87% 0.00 in 0 W/m2
05:26 33.6 °F 30.1 °F 29.89 in WNW 4.0 mph 6.0 mph 87% 0.00 in 0 W/m2
05:32 33.0 °F 29.8 °F 29.88 in WNW 3.0 mph 3.0 mph 88% 0.00 in 0 W/m2
05:38 32.8 °F 29.9 °F 29.88 in WSW 2.0 mph 3.0 mph 89% 0.00 in 0 W/m2
05:44 32.7 °F 29.8 °F 29.87 in WNW 1.0 mph 2.0 mph 89% 0.00 in 0 W/m2
05:50 32.6 °F 30.0 °F 29.89 in WNW 1.0 mph 3.0 mph 90% 0.00 in 0 W/m2
05:56 32.6 °F 30.0 °F 29.90 in WNW 2.0 mph 3.0 mph 90% 0.00 in 0 W/m2
06:02 32.6 °F 30.0 °F 29.90 in WNW 2.0 mph 2.0 mph 90% 0.00 in 0 W/m2
06:08 32.7 °F 30.4 °F 29.91 in WNW 2.0 mph 3.0 mph 91% 0.00 in 0 W/m2
06:14 32.7 °F 30.4 °F 29.91 in WNW 2.0 mph 3.0 mph 91% 0.00 in 0 W/m2
06:20 32.8 °F 30.5 °F 29.91 in WNW 1.0 mph 1.0 mph 91% 0.00 in 0 W/m2
06:26 32.8 °F 30.5 °F 29.92 in WNW 1.0 mph 1.0 mph 91% 0.00 in 0 W/m2
06:32 32.9 °F 30.6 °F 29.92 in WNW 1.0 mph 2.0 mph 91% 0.00 in 0 W/m2
06:38 32.9 °F 30.6 °F 29.92 in WNW 1.0 mph 2.0 mph 91% 0.00 in 0 W/m2
06:50 32.8 °F 30.5 °F 29.92 in WNW 1.0 mph 1.0 mph 91% 0.00 in 0 W/m2
06:56 32.7 °F 30.4 °F 29.93 in WNW 1.0 mph 3.0 mph 91% 0.00 in 0 W/m2
07:03 32.7 °F 30.4 °F 29.93 in WNW 1.0 mph 1.0 mph 91% 0.00 in 0 W/m2
07:08 32.7 °F 30.4 °F 29.94 in WNW 2.0 mph 3.0 mph 91% 0.00 in 0 W/m2
07:14 32.7 °F 30.1 °F 29.94 in WNW 1.0 mph 2.0 mph 90% 0.00 in 0 W/m2
07:20 32.7 °F 30.1 °F 29.94 in WNW 1.0 mph 1.0 mph 90% 0.00 in 0 W/m2
07:26 32.7 °F 30.1 °F 29.94 in WNW 1.0 mph 1.0 mph 90% 0.00 in 0 W/m2
07:32 32.8 °F 30.2 °F 29.95 in Calm   1.0 mph 90% 0.00 in 0 W/m2
07:44 33.0 °F 30.4 °F 29.95 in NW 2.0 mph 2.0 mph 90% 0.00 in 9 W/m2
07:50 33.2 °F 30.6 °F 29.95 in WNW 3.0 mph 3.0 mph 90% 0.00 in 11 W/m2
07:56 33.4 °F 30.2 °F 29.95 in WNW 3.0 mph 3.0 mph 88% 0.00 in 11 W/m2
08:02 33.7 °F 29.7 °F 29.95 in West 4.0 mph 6.0 mph 85% 0.00 in 9 W/m2
08:08 33.9 °F 29.3 °F 29.95 in WNW 4.0 mph 6.0 mph 83% 0.00 in 11 W/m2
08:14 33.9 °F 29.0 °F 29.96 in WNW 4.0 mph 5.0 mph 82% 0.00 in 12 W/m2
08:20 33.9 °F 28.7 °F 29.96 in WNW 4.0 mph 4.0 mph 81% 0.00 in 19 W/m2
08:26 33.9 °F 28.4 °F 29.96 in NW 4.0 mph 7.0 mph 80% 0.00 in 33 W/m2
08:32 34.0 °F 28.2 °F 29.96 in WNW 4.0 mph 4.0 mph 79% 0.00 in 51 W/m2
08:38 34.2 °F 28.1 °F 29.96 in WNW 4.0 mph 5.0 mph 78% 0.00 in 63 W/m2
08:44 34.3 °F 27.8 °F 29.96 in West 3.0 mph 6.0 mph 77% 0.00 in 62 W/m2
08:50 34.4 °F 27.9 °F 29.97 in WNW 3.0 mph 5.0 mph 77% 0.00 in 60 W/m2
08:56 34.4 °F 27.9 °F 29.97 in West 3.0 mph 5.0 mph 77% 0.00 in 58 W/m2
09:02 34.5 °F 28.0 °F 29.97 in WSW 3.0 mph 4.0 mph 77% 0.00 in 37 W/m2
09:08 34.4 °F 28.2 °F 29.97 in West 3.0 mph 6.0 mph 78% 0.00 in 53 W/m2
09:14 34.3 °F 28.5 °F 29.97 in NW 4.0 mph 8.0 mph 79% 0.00 in 44 W/m2
09:20 34.0 °F 28.8 °F 29.98 in WNW 3.0 mph 3.0 mph 81% 0.00 in 39 W/m2
09:26 33.7 °F 29.1 °F 29.98 in WNW 3.0 mph 4.0 mph 83% 0.00 in 35 W/m2
09:32 33.4 °F 29.1 °F 29.98 in WNW 4.0 mph 4.0 mph 84% 0.00 in 62 W/m2
09:38 33.4 °F 29.4 °F 29.98 in WNW 3.0 mph 4.0 mph 85% 0.00 in 56 W/m2
09:44 33.6 °F 29.6 °F 29.98 in WNW 4.0 mph 4.0 mph 85% 0.00 in 63 W/m2
09:50 33.8 °F 29.8 °F 29.98 in West 4.0 mph 7.0 mph 85% 0.00 in 67 W/m2
09:56 34.0 °F 29.7 °F 29.99 in WNW 5.0 mph 8.0 mph 84% 0.00 in 97 W/m2
10:02 34.4 °F 29.8 °F 29.99 in WNW 4.0 mph 7.0 mph 83% 0.00 in 95 W/m2
10:08 34.6 °F 29.7 °F 29.99 in NW 4.0 mph 7.0 mph 82% 0.00 in 111 W/m2
10:14 34.9 °F 29.7 °F 29.99 in WNW 4.0 mph 8.0 mph 81% 0.00 in 139 W/m2
10:20 35.2 °F 29.6 °F 29.99 in NW 4.0 mph 4.0 mph 80% 0.00 in 77 W/m2
10:26 35.3 °F 28.8 °F 29.99 in NW 3.0 mph 4.0 mph 77% 0.00 in 79 W/m2
10:32 35.2 °F 28.1 °F 29.99 in West 4.0 mph 4.0 mph 75% 0.00 in 83 W/m2
10:38 34.9 °F 28.1 °F 29.99 in WNW 5.0 mph 8.0 mph 76% 0.00 in 83 W/m2
10:44 34.8 °F 27.7 °F 29.99 in NW 5.0 mph 9.0 mph 75% 0.00 in 107 W/m2
10:50 34.8 °F 27.7 °F 29.99 in NW 6.0 mph 6.0 mph 75% 0.00 in 95 W/m2
10:56 34.7 °F 26.9 °F 29.99 in West 6.0 mph 7.0 mph 73% 0.00 in 95 W/m2
11:02 34.7 °F 27.3 °F 30.00 in WNW 6.0 mph 10.0 mph 74% 0.00 in 74 W/m2
11:08 34.6 °F 26.8 °F 30.00 in NW 6.0 mph 10.0 mph 73% 0.00 in 72 W/m2
11:14 34.6 °F 27.2 °F 30.00 in WNW 5.0 mph 6.0 mph 74% 0.00 in 81 W/m2
11:20 34.5 °F 26.7 °F 29.99 in WNW 5.0 mph 5.0 mph 73% 0.00 in 93 W/m2
11:26 34.4 °F 26.6 °F 30.00 in WNW 6.0 mph 6.0 mph 73% 0.00 in 105 W/m2
11:32 34.4 °F 26.6 °F 30.00 in WNW 5.0 mph 5.0 mph 73% 0.00 in 91 W/m2
11:38 34.3 °F 26.5 °F 30.00 in WNW 6.0 mph 8.0 mph 73% 0.00 in 72 W/m2
11:44 34.3 °F 26.9 °F 30.00 in WNW 5.0 mph 6.0 mph 74% 0.00 in 72 W/m2
11:50 34.3 °F 26.9 °F 30.00 in NW 4.0 mph 5.0 mph 74% 0.00 in 67 W/m2
11:56 34.1 °F 26.7 °F 30.00 in West 5.0 mph 8.0 mph 74% 0.00 in 67 W/m2
12:02 34.0 °F 26.6 °F 30.00 in West 5.0 mph 5.0 mph 74% 0.00 in 56 W/m2
12:08 33.8 °F 26.4 °F 30.00 in WNW 5.0 mph 8.0 mph 74% 0.00 in 49 W/m2
12:14 33.7 °F 26.6 °F 30.00 in NW 5.0 mph 11.0 mph 75% 0.00 in 54 W/m2
12:22 33.8 °F 26.1 °F 30.00 in West 5.0 mph 8.0 mph 73% 0.00 in 107 W/m2
12:28 33.9 °F 25.8 °F 30.00 in West 5.0 mph 9.0 mph 72% 0.00 in 98 W/m2
12:34 34.0 °F 25.9 °F 30.00 in NW 5.0 mph 5.0 mph 72% 0.00 in 77 W/m2
12:40 34.0 °F 25.6 °F 30.00 in West 5.0 mph 5.0 mph 71% 0.00 in 167 W/m2
12:46 34.0 °F 25.2 °F 29.99 in West 5.0 mph 10.0 mph 70% 0.00 in 141 W/m2
12:52 34.0 °F 24.9 °F 29.99 in SW 5.0 mph 10.0 mph 69% 0.00 in 142 W/m2
12:58 34.0 °F 24.9 °F 29.99 in WNW 6.0 mph 10.0 mph 69% 0.00 in 178 W/m2
13:04 34.1 °F 25.3 °F 29.99 in West 6.0 mph 7.0 mph 70% 0.00 in 125 W/m2
13:10 33.9 °F 24.4 °F 29.99 in WNW 5.0 mph 5.0 mph 68% 0.00 in 105 W/m2
13:16 33.6 °F 24.2 °F 29.98 in West 5.0 mph 7.0 mph 68% 0.00 in 105 W/m2
13:22 33.6 °F 24.5 °F 29.97 in WNW 5.0 mph 5.0 mph 69% 0.00 in 97 W/m2
13:28 33.6 °F 24.9 °F 29.97 in WNW 5.0 mph 5.0 mph 70% 0.00 in 84 W/m2
13:34 33.6 °F 24.9 °F 29.97 in NNE 4.0 mph 8.0 mph 70% 0.00 in 107 W/m2
13:40 33.7 °F 25.0 °F 29.97 in WNW 3.0 mph 3.0 mph 70% 0.00 in 86 W/m2
13:46 33.6 °F 24.9 °F 29.97 in NW 3.0 mph 5.0 mph 70% 0.00 in 90 W/m2
13:58 33.7 °F 25.0 °F 29.96 in WSW 2.0 mph 6.0 mph 70% 0.00 in 62 W/m2
14:04 33.6 °F 24.9 °F 29.96 in WNW 3.0 mph 4.0 mph 70% 0.00 in 56 W/m2
14:10 33.6 °F 25.2 °F 29.95 in SW 3.0 mph 4.0 mph 71% 0.00 in 42 W/m2
14:16 33.5 °F 25.1 °F 29.95 in WSW 3.0 mph 4.0 mph 71% 0.00 in 47 W/m2
14:22 33.5 °F 25.4 °F 29.95 in WSW 2.0 mph 4.0 mph 72% 0.00 in 32 W/m2
14:28 33.4 °F 25.7 °F 29.96 in West 3.0 mph 4.0 mph 73% 0.00 in 28 W/m2
14:34 33.4 °F 25.7 °F 29.96 in WSW 3.0 mph 3.0 mph 73% 0.00 in 28 W/m2
14:40 33.4 °F 25.7 °F 29.96 in SSW 2.0 mph 5.0 mph 73% 0.00 in 18 W/m2
14:46 33.3 °F 25.9 °F 29.96 in WSW 2.0 mph 5.0 mph 74% 0.00 in 25 W/m2
14:52 33.3 °F 25.9 °F 29.96 in WSW 4.0 mph 4.0 mph 74% 0.00 in 33 W/m2
14:58 33.4 °F 26.0 °F 29.96 in SW 4.0 mph 4.0 mph 74% 0.00 in 25 W/m2
15:04 33.4 °F 26.0 °F 29.96 in West 4.0 mph 6.0 mph 74% 0.00 in 28 W/m2
15:10 33.4 °F 26.0 °F 29.96 in WSW 3.0 mph 3.0 mph 74% 0.00 in 33 W/m2
15:16 33.5 °F 26.1 °F 29.96 in WNW 3.0 mph 4.0 mph 74% 0.00 in 28 W/m2
15:22 33.5 °F 25.8 °F 29.95 in SW 3.0 mph 3.0 mph 73% 0.00 in 21 W/m2
15:30 33.6 °F 25.9 °F 29.96 in West 3.0 mph 3.0 mph 73% 0.00 in 16 W/m2
15:36 33.6 °F 25.9 °F 29.96 in West 2.0 mph 4.0 mph 73% 0.00 in 30 W/m2
15:42 33.7 °F 25.6 °F 29.95 in West 4.0 mph 6.0 mph 72% 0.00 in 23 W/m2
15:48 33.7 °F 25.6 °F 29.95 in SW 4.0 mph 6.0 mph 72% 0.00 in 26 W/m2
15:56 33.8 °F 25.4 °F 29.95 in WSW 4.0 mph 4.0 mph 71% 0.00 in 37 W/m2
16:02 33.8 °F 25.7 °F 29.95 in SW 3.0 mph 5.0 mph 72% 0.00 in 21 W/m2
16:08 33.8 °F 25.4 °F 29.94 in SW 3.0 mph 7.0 mph 71% 0.00 in 11 W/m2
16:14 33.7 °F 25.3 °F 29.94 in SW 3.0 mph 4.0 mph 71% 0.00 in 5 W/m2
16:20 33.6 °F 25.5 °F 29.94 in West 2.0 mph 5.0 mph 72% 0.00 in 5 W/m2
16:26 33.6 °F 25.5 °F 29.94 in SW 3.0 mph 7.0 mph 72% 0.00 in 0 W/m2
16:32 33.6 °F 25.5 °F 29.94 in SW 3.0 mph 3.0 mph 72% 0.00 in 0 W/m2
16:38 33.5 °F 25.4 °F 29.93 in West 3.0 mph 5.0 mph 72% 0.00 in 0 W/m2
16:44 33.5 °F 25.8 °F 29.93 in WSW 2.0 mph 3.0 mph 73% 0.00 in 0 W/m2
16:50 33.5 °F 25.8 °F 29.92 in WSW 1.0 mph 1.0 mph 73% 0.00 in 0 W/m2
16:56 33.4 °F 25.7 °F 29.93 in WSW 1.0 mph 4.0 mph 73% 0.00 in 0 W/m2
17:02 33.4 °F 26.0 °F 29.93 in WSW 2.0 mph 5.0 mph 74% 0.00 in 0 W/m2
17:10 33.4 °F 26.0 °F 29.93 in West 2.0 mph 2.0 mph 74% 0.00 in 0 W/m2
17:24 33.4 °F 26.0 °F 29.93 in WSW 1.0 mph 1.0 mph 74% 0.00 in 0 W/m2
17:30 33.4 °F 26.0 °F 29.93 in Calm     74% 0.00 in 0 W/m2
17:36 33.4 °F 26.3 °F 29.93 in Calm   1.0 mph 75% 0.00 in 0 W/m2
17:42 33.3 °F 26.2 °F 29.93 in WSW 1.0 mph 1.0 mph 75% 0.00 in 0 W/m2
17:48 33.3 °F 26.2 °F 29.92 in Calm   1.0 mph 75% 0.00 in 0 W/m2
17:54 33.3 °F 26.2 °F 29.92 in Calm   1.0 mph 75% 0.00 in 0 W/m2
18:00 33.2 °F 26.1 °F 29.92 in WSW 1.0 mph 1.0 mph 75% 0.00 in 0 W/m2
18:06 33.2 °F 26.1 °F 29.91 in WSW 1.0 mph 1.0 mph 75% 0.00 in 0 W/m2
18:12 33.2 °F 26.1 °F 29.91 in Calm   2.0 mph 75% 0.00 in 0 W/m2
18:18 33.2 °F 26.5 °F 29.91 in WSW 1.0 mph 3.0 mph 76% 0.00 in 0 W/m2
18:24 33.2 °F 26.5 °F 29.90 in WSW 1.0 mph 3.0 mph 76% 0.00 in 0 W/m2
18:30 33.2 °F 26.5 °F 29.90 in WSW 1.0 mph 1.0 mph 76% 0.00 in 0 W/m2
18:36 33.2 °F 26.5 °F 29.90 in WSW 1.0 mph 2.0 mph 76% 0.00 in 0 W/m2
18:42 33.2 °F 26.5 °F 29.89 in WSW 1.0 mph 2.0 mph 76% 0.00 in 0 W/m2
18:48 33.1 °F 26.7 °F 29.88 in WSW 1.0 mph 2.0 mph 77% 0.00 in 0 W/m2
18:54 33.2 °F 26.8 °F 29.88 in WSW 1.0 mph 3.0 mph 77% 0.00 in 0 W/m2
19:00 33.2 °F 26.8 °F 29.87 in SSE 1.0 mph 4.0 mph 77% 0.00 in 0 W/m2
19:06 33.3 °F 26.9 °F 29.86 in SSE 2.0 mph 4.0 mph 77% 0.00 in 0 W/m2
19:12 33.4 °F 26.6 °F 29.87 in SSE 1.0 mph 2.0 mph 76% 0.00 in 0 W/m2
19:18 33.4 °F 27.0 °F 29.87 in Calm   2.0 mph 77% 0.00 in 0 W/m2
19:24 33.5 °F 27.1 °F 29.86 in SSE 1.0 mph 1.0 mph 77% 0.00 in 0 W/m2
19:30 33.4 °F 27.0 °F 29.87 in Calm     77% 0.00 in 0 W/m2
19:36 33.4 °F 27.3 °F 29.88 in Calm     78% 0.00 in 0 W/m2
19:42 33.5 °F 27.4 °F 29.88 in Calm     78% 0.00 in 0 W/m2
19:48 33.6 °F 27.5 °F 29.87 in Calm     78% 0.00 in 0 W/m2
19:54 34.0 °F 27.5 °F 29.86 in SSE 1.0 mph 2.0 mph 77% 0.00 in 0 W/m2
20:00 34.6 °F 27.8 °F 29.86 in SSW 2.0 mph 3.0 mph 76% 0.00 in 0 W/m2
20:06 35.2 °F 27.7 °F 29.86 in SW 3.0 mph 6.0 mph 74% 0.00 in 0 W/m2
20:12 35.7 °F 27.6 °F 29.86 in SW 3.0 mph 5.0 mph 72% 0.00 in 0 W/m2
20:18 36.1 °F 27.3 °F 29.86 in SW 3.0 mph 5.0 mph 70% 0.00 in 0 W/m2
20:24 36.4 °F 27.2 °F 29.87 in WSW 3.0 mph 7.0 mph 69% 0.00 in 0 W/m2
20:30 36.5 °F 26.9 °F 29.87 in WSW 3.0 mph 4.0 mph 68% 0.00 in 0 W/m2
20:36 36.7 °F 26.8 °F 29.87 in WSW 3.0 mph 5.0 mph 67% 0.00 in 0 W/m2
20:42 36.8 °F 26.9 °F 29.87 in SW 4.0 mph 4.0 mph 67% 0.00 in 0 W/m2
20:48 36.7 °F 26.8 °F 29.87 in WSW 3.0 mph 4.0 mph 67% 0.00 in 0 W/m2
20:54 36.6 °F 26.7 °F 29.87 in SW 2.0 mph 4.0 mph 67% 0.00 in 0 W/m2
21:00 36.6 °F 26.7 °F 29.87 in West 2.0 mph 4.0 mph 67% 0.00 in 0 W/m2
21:06 36.6 °F 26.3 °F 29.87 in West 3.0 mph 7.0 mph 66% 0.00 in 0 W/m2
21:12 36.6 °F 26.7 °F 29.87 in WSW 3.0 mph 3.0 mph 67% 0.00 in 0 W/m2
21:18 36.6 °F 26.3 °F 29.86 in SW 3.0 mph 6.0 mph 66% 0.00 in 0 W/m2
21:24 36.6 °F 26.7 °F 29.86 in SW 4.0 mph 4.0 mph 67% 0.00 in 0 W/m2
21:30 36.5 °F 26.6 °F 29.86 in WSW 3.0 mph 5.0 mph 67% 0.00 in 0 W/m2
21:36 36.5 °F 26.6 °F 29.86 in West 4.0 mph 6.0 mph 67% 0.00 in 0 W/m2
21:44 36.3 °F 26.7 °F 29.86 in SW 3.0 mph 5.0 mph 68% 0.00 in 0 W/m2
21:50 36.1 °F 26.9 °F 29.86 in WSW 3.0 mph 3.0 mph 69% 0.00 in 0 W/m2
21:56 36.0 °F 27.2 °F 29.86 in West 3.0 mph 6.0 mph 70% 0.00 in 0 W/m2
22:02 35.8 °F 27.3 °F 29.86 in SW 3.0 mph 3.0 mph 71% 0.00 in 0 W/m2
22:08 35.7 °F 27.6 °F 29.86 in SW 3.0 mph 6.0 mph 72% 0.00 in 0 W/m2
22:14 35.6 °F 27.8 °F 29.86 in WSW 3.0 mph 4.0 mph 73% 0.00 in 0 W/m2
22:20 35.5 °F 28.4 °F 29.86 in WSW 3.0 mph 5.0 mph 75% 0.00 in 0 W/m2
22:26 35.3 °F 28.2 °F 29.85 in SW 2.0 mph 5.0 mph 75% 0.00 in 0 W/m2
22:32 35.4 °F 28.6 °F 29.85 in WSW 2.0 mph 2.0 mph 76% 0.00 in 0 W/m2
22:38 35.4 °F 28.6 °F 29.85 in SSW 3.0 mph 6.0 mph 76% 0.00 in 0 W/m2
22:44 35.5 °F 28.7 °F 29.85 in SW 4.0 mph 6.0 mph 76% 0.00 in 0 W/m2
22:50 35.5 °F 28.7 °F 29.85 in SW 3.0 mph 6.0 mph 76% 0.00 in 0 W/m2
22:56 35.6 °F 28.8 °F 29.85 in SW 4.0 mph 6.0 mph 76% 0.00 in 0 W/m2
23:02 35.7 °F 28.9 °F 29.85 in WSW 4.0 mph 4.0 mph 76% 0.00 in 0 W/m2
23:08 35.8 °F 29.0 °F 29.84 in WSW 4.0 mph 6.0 mph 76% 0.00 in 0 W/m2
23:14 35.7 °F 29.2 °F 29.85 in West 3.0 mph 4.0 mph 77% 0.00 in 0 W/m2
23:20 35.6 °F 29.4 °F 29.84 in SW 3.0 mph 3.0 mph 78% 0.00 in 0 W/m2
23:26 35.6 °F 29.4 °F 29.84 in SW 2.0 mph 3.0 mph 78% 0.00 in 0 W/m2
23:32 35.6 °F 29.4 °F 29.84 in SW 2.0 mph 3.0 mph 78% 0.00 in 0 W/m2
23:38 35.7 °F 29.8 °F 29.84 in West 2.0 mph 5.0 mph 79% 0.00 in 0 W/m2
23:44 35.8 °F 29.9 °F 29.83 in WSW 2.0 mph 2.0 mph 79% 0.00 in 0 W/m2
23:50 36.0 °F 29.8 °F 29.83 in West 2.0 mph 2.0 mph 78% 0.00 in 0 W/m2
23:56 36.2 °F 29.7 °F 29.83 in WSW 3.0 mph 3.0 mph 77% 0.00 in 0 W/m2
Country Meadow, Clay, NY, USA
Compliments of Weather Underground - 2 mb